Regional Weather Roundup
Issued by NWS Albany, NY

Home | Current Version | Previous Version | Graphics & Text | Print | Product List | Glossary Off
Versions: 1 2 3 4 5 6 7 8 9 10 11 12 13 14 15 16 17 18 19 20 21 22 23 24 25 26 27 28 29 30 31 32 33 34 35 36 37 38 39 40 41 42 43 44 45 46 47 48 49 50

000
ASUS41 KALY 020910
RWRALY

NEW YORK STATE HOURLY WEATHER ROUNDUP
NATIONAL WEATHER SERVICE ALBANY NY
500 AM EDT SUN AUG 02 2015

NOTE: "FAIR" INDICATES FEW OR NO CLOUDS BELOW 12,000 FEET WITH NO
SIGNIFICANT WEATHER AND/OR NO OBSTRUCTIONS TO VISIBILITY.

NYZ032-033-038>043-046>054-057>066-NYZ062>081-021000-
EAST


CITY           SKY/WX    TMP DP  RH WIND       PRES   REMARKS
ALBANY         CLEAR     60  55  83 CALM      29.87S
GLENS FALLS    CLEAR     54  51  90 CALM      29.86R
POUGHKEEPSIE   CLEAR     59  56  89 CALM      29.87S
NEWBURGH       CLEAR     61  57  88 CALM      29.90
MONTGOMERY     CLEAR     58  56  93 SW3       29.89S
WHITE PLAINS   CLEAR     65  59  81 NW3       29.88R
ISLIP          CLEAR     65  59  81 CALM      29.85S
NEW YORK CITY  PTCLDY    74  60  61 NW8       29.86S
CENTRAL PARK   CLEAR     74  56  53 CALM      29.90S
$$

NYZ005>009-017-018-044>046-055-056-021000-
CENTRAL


CITY           SKY/WX    TMP DP  RH WIND       PRES   REMARKS
FULTON         CLEAR     61  57  87 S7        29.85S
SYRACUSE       PTCLDY    62  58  86 CALM      29.85S
ROME           CLEAR     54  52  93 CALM      29.88S
ELMIRA         CLEAR     53  53 100 CALM      29.90S FOG
BINGHAMTON     CLEAR     58  53  84 SW5       29.91F
MONTICELLO     CLEAR     54  52  94 CALM      29.94S
$$

NYZ026>034-041>043-021000-
NORTH


CITY           SKY/WX    TMP DP  RH WIND       PRES   REMARKS
WATERTOWN      CLEAR     61  58  90 S5        29.83R
FORT DRUM      NOT AVBL
MASSENA        CLEAR     59  56  89 SW7       29.80S
SARANAC LAKE   CLEAR     48  47  96 CALM      29.84F
PLATTSBURGH    CLEAR     57  55  93 CALM      29.80S
$$

NYZ001>004-010>016-019>021-021000-
WEST


CITY           SKY/WX    TMP DP  RH WIND       PRES   REMARKS
NIAGARA FALLS  CLEAR     62  60  93 S3        29.84S
BUFFALO        PTCLDY    62  57  83 S7        29.85F
DUNKIRK        PTCLDY    66  56  70 S12       29.87S
JAMESTOWN      CLEAR     59  50  72 SW9       29.93S
WELLSVILLE     CLEAR     61  50  67 SW8       29.95F
ROCHESTER      CLEAR     61  57  87 SW6       29.86S
PENN YAN       CLEAR     63  57  81 SW10      29.89S
$$

             KEY
       WCI = WIND CHILL INDEX
       VSB = VISIBILITY
       HX  = HEAT INDEX
$$



USA.gov is the U.S. government's official web portal to all federal, state and local government web resources and services.